Temperature
17 17 17 17 17 17 17 18 18 18 18 17 17 17 17 17 17 17 17 16 16 16 16 16 16 17 17 16 17 17 17 17 17 17 17 17 17 17 16 16 16 15 15
17 17 17 17 17 17 18 18 18 18 17 17 17 17 17 17 17 17 17 16 16 16 16 16 16 16 16 16 16 16 16 16 16 16 17 17 16 16 16 16 16 15 15
17 17 17 17 17 17 17 17 17 17 17 17 17 17 17 17 16 17 17 16 16 16 16 16 16 16 16 16 16 16 16 16 16 16 16 16 16 16 16 15 15 15 15
18 17 17 17 17 17 17 17 17 17 17 17 17 17 17 17 16 16 16 16 16 16 16 16 16 16 16 16 16 16 16 16 16 15 15 16 16 15 15 15 15 15 15
18 18 17 17 17 17 17 17 17 17 17 17 17 17 17 17 16 16 16 16 16 16 16 16 16 16 16 16 15 15 15 15 15 15 15 15 15 15 15 15 15 15 15
18 18 18 17 17 17 17 17 17 17 17 17 17 17 16 16 16 16 16 16 16 16 16 16 16 16 16 15 15 15 15 15 15 15 15 15 15 15 15 14 14 14 14
18 18 17 17 17 17 17 17 17 17 17 16 16 16 16 16 16 16 16 16 16 16 15 15 15 15 15 15 15 15 15 15 14 14 14 14 14 14 14 14 14 14 14
18 17 17 17 17 17 17 17 17 17 16 16 16 16 16 16 16 16 16 16 16 15 15 15 15 15 15 15 14 14 14 14 14 14 14 14 14 14 13 13 13 13 13
17 17 17 17 17 17 17 16 16 16 16 16 16 16 16 16 16 16 16 16 15 15 15 15 14 14 14 14 14 14 14 14 14 13 13 13 13 13 13 13 13 12 12
17 17 17 17 16 16 16 16 16 16 16 16 16 15 15 15 15 15 15 15 15 14 14 14 14 14 14 14 13 13 13 13 13 13 13 13 13 13 12 12 12 12 11
17 17 16 16 16 16 16 16 16 16 16 15 15 15 15 15 15 15 15 14 14 14 14 13 13 13 13 13 13 13 13 12 12 12 12 12 12 12 12 12 11 11 11
16 16 16 16 16 16 15 15 15 15 15 15 15 15 14 14 14 14 14 14 13 13 13 13 13 13 13 13 12 12 12 12 12 11 11 11 11 11 11 11 11 11 11
16 16 15 15 15 15 15 15 15 14 14 14 14 14 14 13 13 13 13 13 13 13 12 12 12 12 12 12 12 12 11 11 11 11 11 11 11 11 10 10 10 10 10
15 15 15 15 14 14 14 14 14 14 14 13 13 13 13 13 13 13 13 12 12 12 12 12 12 12 12 11 11 11 11 11 10 10 10 10 10 10 10 10 10 10 10
14 14 14 14 14 14 14 14 13 13 13 13 13 13 12 12 12 12 12 12 12 11 11 11 11 11 11 11 11 11 11 10 10 10 10 10 9 9 9 9 9 9 9
13 13 14 14 13 13 13 13 13 13 13 13 12 12 12 12 11 11 11 11 11 11 11 11 11 11 11 10 10 10 10 10 10 9 9 9 9 9 9 9 9 9 9
13 13 13 13 13 13 13 13 13 12 12 12 12 12 11 11 11 11 11 11 11 11 10 10 10 10 10 10 10 10 10 10 9 9 9 9 9 8 8 8 8 8 8
12 13 13 13 13 13 13 13 13 12 12 12 11 11 11 11 11 10 10 10 10 10 10 10 10 10 9 9 9 9 9 9 9 9 8 8 8 8 8 8 8 7 7
12 12 12 12 12 12 12 13 12 12 12 11 11 11 10 10 10 10 10 10 10 10 9 9 9 9 9 9 9 8 8 8 8 8 7 7 7 7 7 7 7 7 7
11 11 12 12 12 12 12 12 12 12 11 11 11 10 10 10 10 10 9 9 9 9 9 9 8 8 8 8 8 8 7 7 7 7 7 7 7 7 6 6 6 6 6
11 11 11 11 11 11 11 11 11 11 11 11 10 10 10 9 9 9 9 8 8 8 8 8 8 8 7 7 7 7 7 6 6 6 6 6 6 6 6 6 5 5 5
11 11 11 11 10 10 10 10 10 10 10 10 9 9 9 9 8 8 8 7 7 7 7 7 7 6 6 6 6 6 6 5 5 5 5 5 5 5 5 5 5 5 5
10 10 10 10 10 10 10 9 9 9 9 8 8 8 8 7 7 7 7 6 6 6 6 6 6 5 5 5 5 5 4 4 5 4 4 4 4 4 4 4 4 4 4
10 10 10 9 9 9 9 8 8 8 8 7 7 7 6 6 6 6 5 5 5 5 5 5 5 5 4 4 4 4 4 4 4 4 4 4 4 4 4 4 4 4 4
9 9 9 8 8 8 8 7 7 7 6 6 6 5 5 5 5 4 4 4 4 4 4 4 4 4 4 4 3 3 3 4 4 4 4 4 3 3 3 3 3 3 3
8 8 8 7 7 7 7 6 6 5 5 5 5 4 4 4 4 4 3 3 3 3 3 3 3 3 3 3 3 3 3 3 3 3 3 3 3 3 3 3 3 3 3
Wind_Speed
8 8 8 8 8 8 7 8 7 7 8 9 9 9 8 8 8 8 7 7 7 6 6 5 5 5 3 2 2 2 2 2 3 3 2 2 3 2 5 7 9 10 14
8 8 8 8 7 8 8 8 8 7 8 8 8 8 9 9 9 9 9 8 8 8 7 6 6 6 5 4 3 3 2 2 2 4 3 2 2 4 5 5 7 10 11
9 9 8 8 8 8 8 8 8 8 8 8 8 9 8 8 9 9 8 7 7 7 7 7 7 6 6 5 5 4 3 3 3 3 4 3 3 4 4 6 7 6 11
8 8 8 8 8 8 7 7 7 7 7 7 8 7 7 7 7 7 7 7 7 7 7 7 7 7 7 6 6 6 5 4 4 4 4 4 4 4 3 4 5 5 7
7 7 7 7 7 7 7 6 6 7 8 7 6 6 6 6 7 8 7 8 7 6 6 5 6 6 6 6 6 5 5 5 5 5 5 5 5 4 4 4 5 5 6
7 7 6 6 7 7 7 7 7 6 5 6 6 5 6 7 8 8 7 6 5 6 6 5 6 6 6 8 8 6 5 6 6 5 5 6 6 5 4 4 4 5 5
6 6 6 6 6 5 6 6 6 6 5 5 5 4 4 3 4 6 6 4 4 5 5 5 7 7 7 6 7 9 9 10 9 6 7 7 6 5 4 5 4 5 5
6 6 6 6 6 5 4 5 5 4 4 4 4 4 3 2 4 5 5 4 3 3 4 4 5 4 4 4 5 6 7 8 9 9 8 8 7 4 3 4 5 5 6
6 6 5 5 5 5 4 4 4 5 5 4 4 3 3 2 3 4 4 3 3 3 3 3 3 3 4 4 4 6 6 5 6 8 8 7 8 8 5 3 5 5 7
6 6 5 5 5 5 4 3 3 4 4 3 3 2 2 2 3 3 3 1 2 3 2 2 2 2 3 3 4 6 7 6 5 5 4 6 7 8 10 7 6 7 7
6 7 6 5 5 5 4 4 4 4 4 4 3 3 3 3 4 4 3 1 2 2 2 1 1 1 2 3 4 5 6 5 4 5 5 5 5 6 6 7 7 7 8
8 8 7 6 5 5 5 4 4 4 4 3 3 2 2 3 4 4 2 1 3 2 2 2 2 2 3 4 4 5 5 4 4 5 5 5 5 5 5 6 7 8 9
9 9 8 8 6 6 5 4 3 3 3 2 2 2 2 3 4 5 2 0 1 1 2 3 4 5 5 4 5 6 4 3 4 4 5 5 5 5 5 5 6 7 9
9 8 7 7 7 7 6 5 5 4 4 3 3 3 3 4 4 3 2 1 0 1 2 3 5 7 6 5 4 4 4 4 4 5 5 5 5 5 5 4 5 5 6
8 7 7 8 7 7 7 7 7 6 5 4 4 5 4 4 4 3 3 2 2 2 3 3 4 3 3 3 3 3 3 4 4 5 5 6 6 6 5 5 5 5 6
7 6 5 5 5 6 6 7 11 9 9 11 9 7 5 5 3 3 3 3 3 3 3 4 4 3 3 3 3 4 4 4 4 5 5 6 6 5 5 5 4 5 7
7 6 5 5 5 4 4 5 5 5 6 7 6 6 5 3 1 1 3 5 5 2 2 4 4 4 4 4 4 4 4 4 4 4 5 5 5 5 6 6 6 6 7
8 8 6 5 5 4 3 3 3 4 3 2 2 2 2 2 2 2 2 4 4 2 3 4 4 4 4 4 5 5 5 5 5 5 6 6 6 6 6 6 6 7 7
8 7 6 5 4 4 3 3 4 4 3 2 2 2 1 3 4 4 2 3 4 5 4 4 4 5 5 5 5 5 6 6 6 6 6 6 6 6 6 6 6 9 8
6 7 6 5 5 6 6 6 6 5 4 4 4 3 2 2 2 2 1 3 4 5 5 6 5 6 5 5 5 5 6 6 6 6 6 6 6 6 7 8 7 7 7
4 4 5 5 6 7 7 6 6 5 5 5 4 4 3 4 4 5 4 4 5 6 6 7 6 6 6 6 6 7 8 7 6 6 6 7 7 7 7 7 7 8 8
5 5 5 6 6 6 5 5 5 5 6 6 5 4 4 5 7 7 7 7 7 7 7 8 8 7 7 7 8 8 8 8 8 8 8 7 7 8 8 8 8 8 8
5 6 6 5 5 5 5 6 7 7 7 8 8 8 7 7 8 8 8 8 8 8 8 8 8 8 8 9 9 8 7 7 8 8 9 9 9 9 8 9 10 10 10
6 6 6 6 6 6 7 7 7 8 8 8 8 8 8 8 8 9 9 8 8 9 9 9 9 11 12 11 10 9 8 10 11 9 10 10 11 10 10 9 10 11 11
7 7 7 7 7 7 7 7 7 8 8 7 8 8 8 8 8 8 9 8 9 9 11 10 9 11 13 13 12 11 13 13 12 11 11 9 11 11 11 11 10 10 10
8 8 7 7 7 7 7 7 7 8 8 8 8 7 8 8 8 8 8 9 9 9 9 9 12 14 14 12 14 15 15 15 15 14 11 9 10 10 10 10 12 10 11
Wind_Direction
178 178 177 183 186 183 189 193 195 193 177 175 180 182 185 187 188 194 212 191 195 205 217 210 208 250 282 275 238 235 242 247 265 282 260 172 154 166 166 220 236 223 222
176 176 178 178 182 187 195 193 189 188 185 185 186 189 195 194 190 194 213 202 196 203 214 216 209 221 224 268 290 270 245 223 243 280 294 266 198 193 197 222 247 249 242
177 178 181 184 187 191 196 191 185 184 189 190 192 196 204 200 192 196 207 211 206 208 210 213 216 223 219 222 235 263 270 256 216 244 268 272 247 222 210 227 245 258 268
175 178 181 185 187 187 188 183 182 182 190 195 198 200 203 205 197 200 205 212 215 218 215 213 215 219 218 222 229 233 253 272 265 249 257 263 256 241 217 226 249 245 253
167 172 176 178 178 176 178 176 175 183 193 193 198 197 197 203 209 205 205 211 213 223 227 223 226 221 216 215 233 227 235 241 253 252 250 254 256 254 245 240 252 260 255
155 161 162 161 170 174 176 173 174 182 191 189 191 193 201 215 214 201 203 216 205 216 228 230 231 220 220 218 228 237 239 245 252 259 262 260 264 266 268 263 261 271 274
148 151 152 156 158 165 176 170 174 178 182 186 184 189 200 230 199 180 195 221 227 223 226 229 243 242 219 221 228 237 247 251 243 251 265 269 276 279 276 274 273 274 270
148 147 150 154 154 156 161 165 169 171 180 182 185 184 186 207 177 178 193 211 237 244 240 232 233 259 268 245 243 242 243 244 241 238 245 257 268 279 279 272 271 274 267
144 141 143 147 149 153 159 164 166 168 169 176 179 182 188 196 163 170 175 196 225 243 260 269 255 246 270 268 260 264 263 256 249 241 235 242 253 263 263 272 270 270 275
136 134 134 135 137 141 146 146 139 144 153 154 145 144 143 132 121 134 170 213 232 247 242 257 281 278 286 279 264 263 264 266 273 273 253 257 256 256 246 236 245 257 268
111 109 107 108 119 118 114 114 116 125 129 133 119 109 108 104 119 127 147 232 277 285 290 298 347 348 268 267 264 262 261 269 279 276 271 262 255 249 243 235 229 235 249
100 98 94 90 95 102 99 106 116 121 123 121 110 96 98 97 87 120 141 231 317 323 326 352 23 353 302 282 265 260 274 286 276 274 274 273 268 263 258 252 247 245 245
93 92 92 88 77 78 91 96 98 100 106 111 117 110 91 91 84 86 105 254 324 335 335 340 310 288 279 273 250 253 260 259 265 271 273 275 275 275 274 267 262 254 253
82 83 86 87 77 63 61 65 67 64 66 66 73 79 85 81 56 44 38 44 19 311 306 297 275 270 261 260 264 247 239 248 255 264 272 272 273 276 273 269 271 271 272
80 80 81 84 86 78 70 58 67 59 63 65 59 58 54 58 40 34 22 9 358 2 320 280 272 262 249 246 253 255 249 247 255 263 270 276 276 272 271 268 266 270 274
70 68 75 84 91 96 95 80 57 71 73 74 77 84 81 89 94 56 32 354 330 338 320 286 284 280 283 287 282 275 263 260 262 264 267 269 275 281 285 283 281 282 282
61 62 62 66 74 85 98 108 104 81 72 74 82 88 104 125 99 16 350 333 311 310 283 288 303 314 317 317 315 313 309 301 288 285 288 289 290 292 290 288 286 284 285
53 55 48 51 51 54 55 70 105 123 126 114 124 149 165 207 245 274 330 338 313 279 283 298 311 321 326 328 327 323 320 324 322 316 310 307 302 297 295 296 298 300 300
43 42 33 30 33 45 45 46 51 51 57 91 107 102 233 277 271 274 288 296 313 327 329 327 327 329 332 332 327 323 322 321 320 311 303 299 300 301 300 299 298 296 292
49 37 23 21 30 35 35 35 35 31 28 32 45 51 31 342 329 325 284 303 315 328 334 337 342 340 336 333 330 325 322 321 320 316 314 316 317 316 310 304 301 297 292
36 39 25 27 37 35 28 22 19 15 16 23 38 55 17 342 341 343 347 347 345 349 349 344 342 340 343 342 338 334 332 327 328 327 326 322 317 313 307 304 304 303 303
19 28 30 37 41 35 17 5 9 15 16 15 14 24 14 354 359 4 5 8 6 2 358 349 344 346 350 350 344 335 332 332 335 334 328 322 317 312 310 307 305 305 303
15 26 35 37 34 34 22 23 21 19 19 18 15 12 9 7 7 7 4 3 1 356 355 353 344 343 350 351 349 348 344 341 337 331 325 318 312 306 303 300 299 300 299
17 27 32 34 32 30 29 25 23 21 17 16 16 11 8 7 5 4 3 3 360 353 354 351 346 347 351 354 352 355 359 348 335 323 317 307 302 298 297 295 294 294 295
25 28 30 30 29 28 26 25 24 18 12 12 13 10 7 5 5 5 360 358 355 352 349 348 349 351 349 350 352 352 348 340 331 324 312 300 296 295 293 292 291 292 292
30 28 27 27 28 25 23 21 19 15 11 9 10 11 8 4 4 2 358 355 349 347 345 346 345 347 350 355 355 352 347 339 332 323 311 296 290 290 294 295 296 295 295
Height
1482 1485 1488 1492 1495 1499 1502 1506 1510 1514 1517 1520 1523 1526 1528 1530 1533 1535 1537 1539 1540 1542 1544 1545 1546 1547 1549 1550 1551 1552 1553 1554 1553 1554 1555 1554 1555 1555 1554 1554 1554 1553 1553
1481 1484 1487 1490 1493 1497 1500 1504 1507 1511 1514 1517 1520 1523 1525 1527 1530 1532 1534 1536 1537 1539 1540 1542 1543 1545 1546 1547 1548 1549 1550 1550 1551 1550 1551 1551 1551 1551 1551 1550 1550 1550 1549
1480 1483 1486 1488 1491 1495 1499 1502 1505 1508 1511 1514 1517 1519 1522 1524 1526 1528 1530 1533 1534 1536 1537 1539 1540 1541 1542 1543 1544 1545 1546 1547 1547 1547 1547 1547 1547 1547 1546 1546 1546 1545 1545
1480 1482 1485 1487 1490 1493 1497 1500 1503 1506 1509 1511 1514 1516 1519 1521 1523 1525 1527 1529 1531 1533 1534 1535 1537 1538 1538 1539 1540 1541 1542 1542 1543 1543 1542 1543 1543 1543 1542 1541 1541 1540 1540
1479 1482 1484 1486 1488 1492 1495 1498 1501 1504 1506 1509 1511 1513 1516 1518 1520 1521 1524 1526 1527 1529 1531 1532 1533 1534 1535 1535 1536 1537 1537 1537 1538 1538 1538 1538 1538 1538 1537 1537 1536 1535 1535
1479 1481 1483 1485 1488 1491 1494 1497 1500 1502 1505 1507 1509 1511 1513 1515 1517 1518 1520 1523 1524 1525 1527 1528 1529 1530 1530 1531 1532 1532 1533 1533 1533 1533 1532 1532 1532 1533 1532 1532 1531 1530 1529
1478 1481 1483 1485 1488 1490 1493 1496 1498 1500 1503 1505 1506 1508 1510 1512 1514 1516 1517 1519 1521 1522 1523 1524 1525 1526 1526 1526 1527 1527 1527 1528 1528 1528 1527 1527 1527 1527 1527 1526 1525 1524 1523
1478 1480 1482 1485 1487 1489 1492 1494 1496 1499 1501 1503 1505 1506 1508 1509 1511 1512 1514 1516 1517 1518 1519 1520 1520 1521 1521 1521 1521 1521 1521 1521 1521 1521 1521 1521 1521 1520 1520 1520 1519 1517 1516
1477 1479 1481 1483 1485 1488 1490 1492 1495 1497 1499 1501 1503 1504 1505 1507 1509 1510 1511 1512 1513 1514 1515 1516 1516 1516 1516 1517 1516 1516 1515 1515 1515 1515 1514 1514 1513 1513 1513 1513 1512 1511 1509
1476 1478 1481 1483 1485 1487 1489 1491 1493 1496 1498 1499 1501 1502 1503 1505 1506 1507 1508 1508 1509 1510 1511 1511 1511 1511 1511 1511 1511 1510 1509 1509 1509 1508 1507 1507 1506 1506 1506 1506 1505 1504 1503
1476 1478 1480 1482 1484 1486 1488 1490 1492 1494 1496 1498 1499 1500 1501 1503 1503 1504 1504 1505 1506 1506 1507 1507 1507 1507 1506 1506 1505 1504 1503 1503 1502 1501 1500 1500 1500 1499 1499 1499 1498 1498 1497
1476 1478 1480 1482 1484 1486 1487 1489 1491 1493 1495 1496 1497 1498 1500 1501 1501 1501 1502 1502 1503 1503 1503 1503 1503 1502 1502 1501 1500 1499 1498 1497 1496 1495 1495 1494 1494 1493 1493 1492 1492 1491 1490
1477 1478 1480 1483 1484 1486 1487 1489 1491 1493 1494 1495 1496 1497 1498 1499 1499 1499 1500 1500 1500 1500 1500 1499 1499 1498 1497 1496 1495 1495 1494 1492 1491 1491 1490 1489 1488 1488 1487 1486 1485 1484 1483
1478 1480 1482 1484 1485 1487 1488 1489 1491 1492 1493 1494 1495 1496 1497 1498 1498 1497 1498 1497 1497 1497 1497 1496 1496 1495 1494 1493 1492 1491 1490 1489 1488 1487 1486 1485 1484 1483 1482 1481 1480 1478 1477
1480 1482 1484 1485 1487 1489 1490 1491 1492 1493 1494 1495 1496 1496 1497 1497 1497 1496 1496 1496 1495 1495 1494 1494 1493 1493 1492 1491 1490 1489 1488 1486 1485 1483 1482 1481 1480 1478 1477 1476 1474 1473 1471
1483 1485 1487 1488 1490 1491 1492 1493 1494 1495 1495 1496 1496 1497 1497 1497 1496 1496 1495 1495 1494 1494 1493 1492 1491 1491 1490 1489 1488 1487 1485 1484 1482 1480 1479 1477 1476 1474 1473 1471 1470 1468 1466
1487 1488 1489 1491 1492 1493 1494 1494 1495 1496 1496 1496 1497 1497 1497 1496 1496 1495 1495 1494 1493 1493 1492 1491 1490 1490 1489 1487 1486 1484 1483 1481 1479 1477 1475 1473 1472 1470 1468 1467 1465 1463 1461
1491 1491 1492 1493 1494 1495 1496 1497 1497 1497 1497 1497 1497 1497 1496 1496 1496 1495 1494 1493 1492 1492 1491 1490 1489 1488 1486 1485 1483 1481 1479 1477 1475 1473 1471 1469 1467 1465 1463 1461 1460 1458 1456
1494 1495 1495 1496 1497 1497 1498 1498 1499 1498 1498 1498 1497 1497 1497 1496 1496 1495 1493 1492 1491 1491 1490 1488 1487 1486 1484 1482 1480 1478 1476 1473 1471 1469 1467 1465 1463 1461 1458 1456 1454 1452 1450
1497 1498 1499 1499 1499 1499 1500 1500 1500 1500 1499 1499 1498 1497 1496 1496 1495 1494 1493 1492 1490 1489 1488 1486 1485 1483 1481 1479 1477 1474 1472 1469 1467 1465 1462 1460 1458 1455 1453 1451 1449 1447 1444
1501 1501 1501 1501 1501 1501 1501 1501 1500 1500 1500 1500 1499 1498 1497 1496 1495 1494 1492 1490 1489 1487 1486 1484 1482 1480 1478 1476 1473 1471 1468 1465 1463 1460 1457 1455 1452 1450 1448 1446 1443 1441 1439
1503 1503 1503 1502 1502 1502 1502 1501 1501 1501 1500 1500 1499 1498 1496 1495 1494 1493 1491 1489 1487 1485 1484 1482 1480 1478 1475 1472 1470 1467 1464 1461 1458 1455 1452 1449 1446 1444 1442 1440 1437 1435 1433
1504 1504 1504 1504 1503 1503 1503 1502 1502 1501 1500 1499 1498 1497 1496 1494 1493 1491 1489 1487 1485 1483 1481 1479 1477 1474 1472 1469 1466 1462 1459 1456 1453 1450 1446 1443 1441 1438 1436 1433 1431 1429 1427
1506 1505 1505 1504 1504 1504 1503 1502 1502 1501 1500 1499 1498 1496 1495 1493 1492 1490 1488 1485 1483 1481 1478 1476 1473 1471 1468 1464 1461 1458 1455 1451 1448 1444 1441 1438 1435 1432 1430 1428 1425 1423 1421
1507 1506 1506 1505 1505 1504 1503 1503 1502 1501 1500 1499 1497 1495 1494 1492 1490 1488 1486 1483 1480 1478 1475 1473 1470 1467 1464 1460 1457 1453 1450 1446 1442 1439 1435 1432 1429 1426 1424 1422 1419 1417 1415
1507 1507 1506 1505 1505 1504 1503 1502 1501 1500 1499 1498 1496 1494 1493 1491 1489 1486 1484 1481 1478 1475 1472 1470 1467 1464 1460 1456 1453 1448 1444 1440 1436 1433 1429 1426 1423 1421 1418 1416 1414 1412 1410